Satellite: XATCOBEO
Catalog number: 38082
Epoch time:      12221.95299609
Element set:    0459
Inclination:      069.4862 deg
RA of node:       194.2561 deg
Eccentricity:    0.0721762
Arg of perigee:   180.9884 deg
Mean anomaly:     178.9988 deg
Mean motion:   14.20006668 rev/day
Decay rate:     4.0858e-04 rev/day^2
Epoch rev:           02507
Checksum:              351

/EX
SB KEPS @ AMSAT  $ORB12222.W
Orbital Elements  12222.WEATHER

HR AMSAT ORBITAL ELEMENTS FOR WEATHER SATELLITES
FROM WA5QGD FORT WORTH,TX August 9, 2012
Send SUBSCRIBE KEPS/UNSUBSCRIBE KEPS to majordomo@amsat.org only
BID: ORB12222.W
TO ALL RADIO AMATEURS BT

Satellite: NOAA-10
Catalog number: 16969
Epoch time:      12222.70856501
Element set:      21
Inclination:      098.5780 deg
RA of node:       250.8048 deg
Eccentricity:    0.0013119
Arg of perigee:   078.8061 deg
Mean anomaly:     281.4590 deg
Mean motion:   14.27567928 rev/day
Decay rate:       -3.0e-07 rev/day^2
Epoch rev:           34750
Checksum:              299

Satellite: NOAA-11
Catalog number: 19531
Epoch time:      12222.74472483
Element set:      16
Inclination:      098.7312 deg
RA of node:       306.7756 deg
Eccentricity:    0.0012069
Arg of perigee:   071.9309 deg
Mean anomaly:     288.3196 deg
Mean motion:   14.14975112 rev/day
Decay rate:      -1.27e-06 rev/day^2
Epoch rev:           23208
Checksum:              295

Satellite: NOAA-12
Catalog number: 21263
Epoch time:      12222.88332183
Element set:     502
Inclination:      098.7264 deg
RA of node:       244.2918 deg
Eccentricity:    0.0014754
Arg of perigee:   046.9266 deg
Mean anomaly:     313.3146 deg
Mean motion:   14.25511095 rev/day
Decay rate:        5.5e-07 rev/day^2
Epoch rev:           10420
Checksum:              271

Satellite: MET-3/5
Catalog number: 21655
Epoch time:      12222.78235332
Element set:     476
Inclination:      082.5566 deg
RA of node:       114.3336 deg
Eccentricity:    0.0013360
Arg of perigee:   183.7087 deg
Mean anomaly:     176.3938 deg
Mean motion:   13.17042721 rev/day
Decay rate:      -1.97e-06 rev/day^2
Epoch rev:             894
Checksum:              300

Satellite: MET-2/21
Catalog number: 22782
Epoch time:      12221.87137034
Element set:    0496
Inclination:      082.5500 deg
RA of node:       350.7063 deg
Eccentricity:    0.0022855
Arg of perigee:   008.9508 deg
Mean anomaly:     351.2071 deg
Mean motion:   13.83686963 rev/day
Decay rate:        6.8e-07 rev/day^2
Epoch rev:           95645
Checksum:              308

Satellite: OKEAN-4
Catalog number: 23317
Epoch time:      12221.90009216
Element set:    0002
Inclination:      082.5421 deg
RA of node:       341.9170 deg
Eccentricity:    0.0021440
Arg of perigee:   173.0214 deg
Mean anomaly:     187.1304 deg
Mean motion:   14.83883919 rev/day
Decay rate:      1.204e-05 rev/day^2
Epoch rev:           96262
Checksum:              252

Satellite: NOAA-14
Catalog number: 23455
Epoch time:      12222.90006149
Element set:     982
Inclination:      098.8256 deg
RA of node:       305.7208 deg
Eccentricity:    0.0009628
Arg of perigee:   158.3243 deg
Mean anomaly:     201.8334 deg
Mean motion:   14.13866132 rev/day
Decay rate:        9.0e-07 rev/day^2
Epoch rev:           90838
Checksum:              299

Satellite: NOAA-15
Catalog number: 25338
Epoch time:      12221.64448956
Element set:    0359
Inclination:      098.6944 deg
RA of node:       208.0701 deg
Eccentricity:    0.0010013
Arg of perigee:   321.3497 deg
Mean anomaly:     038.6961 deg
Mean motion:   14.25103740 rev/day
Decay rate:       2.22e-06 rev/day^2
Epoch rev:           74032
Checksum:              282

Satellite: RESURS
Catalog number: 25394
Epoch time:      12221.94909267
Element set:    0176
Inclination:      098.3250 deg
RA of node:       207.4203 deg
Eccentricity:    0.0002393
Arg of perigee:   079.0583 deg
Mean anomaly:     281.0868 deg
Mean motion:   14.24291531 rev/day
Decay rate:        3.0e-08 rev/day^2
Epoch rev:           73191
Checksum:              285

Satellite: FENGYUN1
Catalog number: 25730
Epoch time:      12221.95175150
Element set:    0677
Inclination:      098.8481 deg
RA of node:       180.0260 deg
Eccentricity:    0.0017344
Arg of perigee:   211.2101 deg
Mean anomaly:     148.8039 deg
Mean motion:   14.09695817 rev/day
Decay rate:       7.85e-06 rev/day^2
Epoch rev:           68204
Checksum:              293

Satellite: OKEAN-0
Catalog number: 25860
Epoch time:      12221.92981205
Element set:    0725
Inclination:      097.9412 deg
RA of node:       183.5102 deg
Eccentricity:    0.0001860
Arg of perigee:   069.1479 deg
Mean anomaly:     290.9929 deg
Mean motion:   14.74259997 rev/day
Decay rate:       4.69e-06 rev/day^2
Epoch rev:           70234
Checksum:              324

Satellite: NOAA-16
Catalog number: 26536
Epoch time:      12221.65853715
Element set:    0847
Inclination:      099.0900 deg
RA of node:       264.5831 deg
Eccentricity:    0.0009856
Arg of perigee:   297.7180 deg
Mean anomaly:     062.2990 deg
Mean motion:   14.12768456 rev/day
Decay rate:       2.84e-06 rev/day^2
Epoch rev:           61244
Checksum:              327

